Weather History for Maastricht, Netherlands

Change the Weather History Date:

Friday, December 7, 2012

  Actual Average Record
Temperature  
Mean Temperature 32 °F -  
Max Temperature 34 °F 42 °F 57 °F (2000)
Min Temperature 30 °F 33 °F 23 °F (2010)
Degree Days  
Heating Degree Days 33    
Moisture  
Dew Point 30 °F    
Average Humidity 89    
Maximum Humidity 100    
Minimum Humidity 67    
Precipitation  
Precipitation 0.08 in 0.09 in - ()
Sea Level Pressure  
Sea Level Pressure 29.61 in    
Wind  
Wind Speed 14 mph ()    
Max Wind Speed 21 mph    
Max Gust Speed 32 mph    
Visibility 5.7 miles    
Events Rain , Snow    
Averages and records for this station are not official NWS values.
T = Trace of Precipitation, MM = Missing Value Source: Averaged Metar Reports

Daily Weather History Graph

Daily Weather History Graph

Search for Another Location

Airport:

Trip Planner

Search our weather history database for the weather conditions in past years. The results will help you decide how hot, cold, wet, or windy it might be!

Date:

Astronomy

Dec. 07, 2012 Rise Set
Actual Time 8:25 AM CET 4:31 PM CET
Civil Twilight 7:46 AM CET 5:10 PM CET
Nautical Twilight 7:04 AM CET 5:52 PM CET
Astronomical Twilight 6:24 AM CET 6:32 PM CET
Moon 12:48 AM CET (12/7) 12:55 PM CET (12/7)
Length of Visible Light 9h 23m
Length of Day
8h 05m
Last Quarter, 41% of the Moon is Illuminated
Dec 7
Last Quarter
Dec 13
New
Dec 20
First Quarter
Dec 28
Full
Jan 5
Last Quarter

Hourly Weather History & Observations

Time (CET) Temp. Windchill Dew Point Humidity Pressure Visibility Wind Dir Wind Speed Gust Speed Precip Events Conditions
12:25 AM 32.0 °F 21.2 °F 26.6 °F 80% 29.86 in 6.2 mi South 16.1 mph - N/A   Unknown
12:55 AM 32.0 °F 20.8 °F 26.6 °F 80% 29.83 in 6.2 mi South 17.3 mph - N/A   Unknown
1:00 AM 32 °F - 26 °F 71% 29.85 in 19 mi South 17.9 mph - -   Partly Cloudy
1:25 AM 32.0 °F 20.8 °F 24.8 °F 75% 29.80 in 6.2 mi South 17.3 mph - N/A   Unknown
1:55 AM 32.0 °F 20.5 °F 26.6 °F 80% 29.77 in 6.2 mi South 18.4 mph - N/A   Unknown
2:25 AM 32.0 °F 20.5 °F 26.6 °F 80% 29.74 in 6.2 mi South 18.4 mph - N/A   Unknown
2:55 AM 33.8 °F 22.8 °F 26.6 °F 75% 29.74 in 6.2 mi South 18.4 mph - N/A   Unknown
3:25 AM 33.8 °F 22.5 °F 26.6 °F 75% 29.71 in 6.2 mi South 19.6 mph - N/A   Unknown
3:55 AM 33.8 °F 22.2 °F 26.6 °F 75% 29.68 in 6.2 mi South 20.7 mph - N/A   Partly Cloudy
4:00 AM 33 °F - 26 °F 67% 29.70 in 22 mi South 17.9 mph - -   Mostly Cloudy
4:25 AM 33.8 °F 22.2 °F 26.6 °F 75% 29.65 in 6.2 mi South 20.7 mph 32.2 mph N/A   Unknown
4:55 AM 33.8 °F 22.5 °F 26.6 °F 75% 29.62 in 6.2 mi South 19.6 mph 31.1 mph N/A   Mostly Cloudy
5:25 AM 33.8 °F 22.8 °F 24.8 °F 70% 29.62 in 6.2 mi South 18.4 mph 29.9 mph N/A   Mostly Cloudy
5:55 AM 32.0 °F 19.8 °F 26.6 °F 80% 29.59 in - South 20.7 mph - N/A Snow Light Snow
6:25 AM 32.0 °F 20.1 °F 28.4 °F 87% 29.56 in 3.7 mi South 19.6 mph - N/A Snow Light Snow
6:55 AM 32.0 °F 20.5 °F 28.4 °F 87% 29.56 in - South 18.4 mph - N/A Snow Light Snow
7:00 AM 31 °F - 29 °F 87% 29.59 in 2 mi South 17.9 mph - - Snow Light Snow
7:25 AM 32.0 °F 21.2 °F 28.4 °F 87% 29.56 in 2.8 mi South 16.1 mph - N/A Snow Light Snow
7:55 AM 30.2 °F 19.8 °F 30.2 °F 100% 29.56 in 1.2 mi South 13.8 mph - N/A Snow Light Snow
8:25 AM 30.2 °F 19.3 °F 30.2 °F 100% 29.53 in - South 15.0 mph - N/A Snow Light Snow
8:55 AM 32.0 °F 21.2 °F 28.4 °F 87% 29.53 in - South 16.1 mph - N/A Snow Light Snow
9:25 AM 30.2 °F 19.3 °F 30.2 °F 100% 29.50 in 1.0 mi South 15.0 mph - N/A Snow Light Snow
9:55 AM 32.0 °F 21.2 °F 28.4 °F 87% 29.50 in 5.0 mi South 16.1 mph - N/A Snow Light Snow
10:00 AM 32 °F - 29 °F 84% 29.53 in 2 mi South 20.1 mph - - Snow Light Snow
10:25 AM 32.0 °F 21.2 °F 28.4 °F 87% 29.50 in - South 16.1 mph - N/A Snow Light Snow Grains
10:55 AM 32.0 °F 21.2 °F 30.2 °F 93% 29.47 in 1.3 mi South 16.1 mph - N/A Snow Light Snow
11:25 AM 32.0 °F 22.1 °F 30.2 °F 93% 29.47 in - South 13.8 mph - N/A Snow Light Snow
11:55 AM 32.0 °F 21.6 °F 30.2 °F 93% 29.47 in 6.2 mi South 15.0 mph - N/A Rain , Snow Light Freezing Rain
12:25 PM 32.0 °F 23.0 °F 30.2 °F 93% 29.47 in 6.2 mi SSW 11.5 mph - N/A Snow Light Snow
12:55 PM 32.0 °F 22.5 °F 30.2 °F 93% 29.47 in 6.2 mi South 12.7 mph - N/A Rain , Snow Light Snow
1:00 PM 33 °F - 30 °F 83% 29.51 in 7 mi South 13.4 mph - - Snow Light Snow
1:25 PM 32.0 °F 22.1 °F 30.2 °F 93% 29.47 in 5.6 mi South 13.8 mph - N/A Snow Light Snow
1:55 PM 32.0 °F 22.5 °F 32.0 °F 100% 29.47 in 2.5 mi South 12.7 mph - N/A Snow Light Snow
2:25 PM 32.0 °F 23.0 °F 32.0 °F 100% 29.47 in 1.5 mi SSW 11.5 mph - N/A Snow Light Snow
2:55 PM 32.0 °F 23.6 °F 32.0 °F 100% 29.47 in - SSW 10.4 mph - N/A Snow Light Snow
3:25 PM 33.8 °F 25.8 °F 32.0 °F 93% 29.47 in 6.2 mi SSW 10.4 mph - N/A Snow Light Snow Grains
3:55 PM 35.6 °F 28.6 °F 32.0 °F 87% 29.50 in 6.2 mi SSW 9.2 mph - N/A   Overcast
4:00 PM 35 °F - 32 °F 83% 29.54 in 25 mi SSW 8.9 mph - - Rain Drizzle
4:25 PM 33.8 °F 27.0 °F 32.0 °F 93% 29.50 in 6.2 mi SSW 8.1 mph - N/A   Overcast
4:55 PM 33.8 °F 29.6 °F 32.0 °F 93% 29.53 in 6.2 mi South 4.6 mph - N/A   Overcast
5:25 PM 33.8 °F 30.8 °F 32.0 °F 93% 29.56 in 6.2 mi South 3.5 mph - N/A   Overcast
5:55 PM 33.8 °F 29.6 °F 32.0 °F 93% 29.56 in 6.2 mi South 4.6 mph - N/A   Overcast
6:25 PM 33.8 °F 29.6 °F 32.0 °F 93% 29.59 in 6.2 mi South 4.6 mph - N/A   Overcast
6:55 PM 32.0 °F 26.4 °F 32.0 °F 100% 29.59 in 6.2 mi East 5.8 mph - N/A   Overcast
7:00 PM 33 °F - 32 °F 93% 29.65 in 7 mi East 6.7 mph - -   Partly Cloudy
7:25 PM 32.0 °F 26.4 °F 32.0 °F 100% 29.62 in 6.2 mi East 5.8 mph - N/A   Overcast
7:55 PM 32.0 °F 26.4 °F 32.0 °F 100% 29.65 in 5.6 mi East 5.8 mph - N/A   Overcast
8:25 PM 32.0 °F 25.6 °F 32.0 °F 100% 29.65 in 6.2 mi ENE 6.9 mph - N/A   Overcast
8:55 PM 32.0 °F 26.4 °F 32.0 °F 100% 29.68 in 6.2 mi East 5.8 mph - N/A   Overcast
9:25 PM 32.0 °F 27.5 °F 30.2 °F 93% 29.68 in 6.2 mi East 4.6 mph - N/A   Overcast
9:55 PM 32.0 °F 28.7 °F 30.2 °F 93% 29.71 in 6.2 mi East 3.5 mph - N/A   Overcast
10:00 PM 32 °F - 31 °F 93% 29.75 in 7 mi NNE 4.5 mph - -   Overcast
10:25 PM 32.0 °F 25.6 °F 30.2 °F 93% 29.74 in 6.2 mi NNE 6.9 mph - N/A   Overcast
10:55 PM 32.0 °F 24.2 °F 30.2 °F 93% 29.74 in 6.2 mi NE 9.2 mph - N/A   Overcast
11:25 PM 30.2 °F 21.3 °F 30.2 °F 100% 29.77 in 6.2 mi ENE 10.4 mph - N/A   Overcast
11:55 PM 32.0 °F 24.2 °F 28.4 °F 87% 29.80 in 6.2 mi ENE 9.2 mph - N/A   Overcast